TimeCST,TemperatureF,Dew PointF,Humidity,Sea Level PressureIn,VisibilityMPH,Wind Direction,Wind SpeedMPH,Gust SpeedMPH,PrecipitationIn,Events,Conditions,WindDirDegrees,DateUTC
12:53 AM,24.1,19.0,81,30.31,10.0,SE,9.2,-,N/A,,Clear,140,2013-01-18 06:53:00
1:53 AM,24.1,19.0,81,30.29,10.0,SE,10.4,-,N/A,,Clear,140,2013-01-18 07:53:00
2:53 AM,25.0,19.0,78,30.24,10.0,SSE,13.8,-,N/A,,Clear,160,2013-01-18 08:53:00
3:53 AM,25.0,19.0,78,30.19,10.0,SSE,13.8,-,N/A,,Clear,160,2013-01-18 09:53:00
4:53 AM,25.0,19.9,81,30.14,10.0,SSE,11.5,-,N/A,,Clear,160,2013-01-18 10:53:00
5:53 AM,25.0,21.0,85,30.09,10.0,South,10.4,-,N/A,,Clear,170,2013-01-18 11:53:00
6:53 AM,30.0,24.1,79,30.04,10.0,South,15.0,-,N/A,,Clear,180,2013-01-18 12:53:00
7:53 AM,30.0,24.1,79,30.00,10.0,SSW,19.6,27.6,N/A,,Clear,200,2013-01-18 13:53:00
8:53 AM,34.0,26.1,73,29.99,10.0,SSW,18.4,23.0,N/A,,Clear,200,2013-01-18 14:53:00
9:53 AM,39.0,27.0,62,29.96,10.0,SSW,21.9,29.9,N/A,,Clear,210,2013-01-18 15:53:00
10:53 AM,42.1,27.0,55,29.93,10.0,SW,26.5,36.8,N/A,,Clear,220,2013-01-18 16:53:00
11:53 AM,43.0,28.9,58,29.89,10.0,SW,23.0,34.5,N/A,,Clear,230,2013-01-18 17:53:00
12:53 PM,45.0,28.9,53,29.85,10.0,WSW,20.7,29.9,N/A,,Clear,240,2013-01-18 18:53:00
1:53 PM,46.0,30.0,54,29.85,10.0,WSW,20.7,29.9,N/A,,Clear,240,2013-01-18 19:53:00
2:53 PM,46.0,30.0,54,29.82,10.0,SW,17.3,26.5,N/A,,Clear,230,2013-01-18 20:53:00
3:53 PM,45.0,30.0,56,29.83,10.0,WSW,17.3,24.2,N/A,,Clear,240,2013-01-18 21:53:00
4:53 PM,43.0,30.0,60,29.84,10.0,WSW,17.3,-,N/A,,Clear,250,2013-01-18 22:53:00
5:53 PM,39.9,30.0,68,29.87,10.0,WSW,16.1,-,N/A,,Clear,250,2013-01-18 23:53:00
6:53 PM,39.0,30.0,70,29.86,10.0,WSW,15.0,-,N/A,,Clear,240,2013-01-19 00:53:00
7:53 PM,37.9,30.0,73,29.87,10.0,WSW,15.0,-,N/A,,Clear,250,2013-01-19 01:53:00
8:53 PM,36.0,30.0,79,29.86,10.0,WSW,12.7,-,N/A,,Clear,250,2013-01-19 02:53:00
9:53 PM,35.1,28.9,78,29.87,10.0,WSW,13.8,-,N/A,,Clear,250,2013-01-19 03:53:00
10:53 PM,35.1,30.0,82,29.86,10.0,WSW,10.4,-,N/A,,Clear,250,2013-01-19 04:53:00
11:53 PM,36.0,30.0,79,29.84,10.0,WSW,9.2,-,N/A,,Clear,250,2013-01-19 05:53:00